Regional Weather Roundup
Issued by NWS

Home | Current Version | Previous Version | Text Only | Print | Product List | Glossary Off
Versions: 1 2 3 4 5 6 7 8 9 10 11 12 13 14 15 16 17 18 19 20 21 22 23 24 25 26 27 28 29 30 31 32 33 34 35 36 37 38 39 40 41 42 43 44 45 46 47 48 49 50

000
ASUS43 KDMX 271208
RWRIA

WEATHER ROUNDUP FOR IOWA
NATIONAL WEATHER SERVICE DES MOINES IA
700 AM CDT TUE SEP 27 2016

NOTE: "FAIR" INDICATES FEW OR NO CLOUDS BELOW 12,000 FEET WITH NO
SIGNIFICANT WEATHER AND/OR OBSTRUCTIONS TO VISIBILITY.

* - THESE STATIONS ARE NOT NWS STATIONS...THUS NOT UNDER NWS
QUALITY CONTROL.  THEY ALSO DO NOT REPORT WEATHER SUCH
AS PRECIPITATION OR FOG.

IAZ001>003-012>014-020>022-031>034-043>046-271300-
   NORTHWEST IOWA

CITY           SKY/WX    TMP DP  RH WIND       PRES   REMARKS
CARROLL *      CLEAR     46  41  81 W7        30.00R
CHEROKEE *     CLEAR     44  38  82 SW3       30.01R
DENISON *      CLEAR     43  41  93 CALM      30.00S
LE MARS *      CLEAR     43  39  87 CALM      30.03S
ORANGE CITY *  CLEAR     39  36  87 W6        30.01S WCI  35
SHELDON *      CLEAR     41  37  87 W5        29.98F
SIOUX CITY     CLEAR     46  41  82 NW6       30.03S
6HR MIN TEMP:  45; 6HR MAX TEMP:  52;

SPENCER        CLEAR     42  37  82 W3        29.99R
6HR MIN TEMP:  41; 6HR MAX TEMP:  45;

STORM LAKE *   CLEAR     45  37  76 W12       30.00S
$$

IAZ055>058-069>071-079>083-090>094-271300-
   SOUTHWEST IOWA

CITY           SKY/WX    TMP DP  RH WIND       PRES   REMARKS
ATLANTIC *     CLEAR     48  45  87 CALM      30.02S
AUDUBON *      CLEAR     43  39  87 CALM      30.02S
CLARINDA *       N/A     45  45 100 MISG      30.04S
COUNCIL BLFS * CLEAR     52  46  82 CALM      30.03S
CRESTON *      CLEAR     48  43  81 NW5       30.03S
HARLAN  *      CLEAR     46  43  87 CALM      30.06S
LAMONI         CLEAR     50  45  83 W8        30.01S
6HR MIN TEMP:  50; 6HR MAX TEMP:  55;

RED OAK *      CLEAR     45  45 100 CALM      30.03S
SHENANDOAH *   CLEAR     46  45  93 CALM      30.04S
$$

IAZ047>049-059>061-072>074-084-271300-
   CENTRAL IOWA

CITY           SKY/WX    TMP DP  RH WIND       PRES   REMARKS
AMES           CLEAR     48  42  80 W10       29.97R
6HR MIN TEMP:  47; 6HR MAX TEMP:  57;

ANKENY *         N/A    N/A N/A N/A MISG        N/A
BOONE *        CLEAR     48  39  71 W9        29.97S
CHARITON *       N/A     50  45  81 W9        29.99S
DES MOINES     PTCLDY    50  43  77 W5        29.99R
6HR MIN TEMP:  50; 6HR MAX TEMP:  56;

GRINNELL*      CLEAR     45  41  86 W5        29.97S
KNOXVILLE *    CLEAR     50  41  71 W8        29.97S
MARSHALLTOWN   CLEAR     45  39  79 W5        29.94S
6HR MIN TEMP:  44; 6HR MAX TEMP:  52;

NEWTON *       CLEAR     45  43  93 W7        29.97R
PELLA *        CLEAR     51  44  77 W7        29.99R
PERRY *          N/A     45  43  93 W6        29.99S
$$

IAZ004>006-015-016-023>025-035-036-271300-
   NORTH CENTRAL IOWA

CITY           SKY/WX    TMP DP  RH WIND       PRES   REMARKS
ALGONA *       CLEAR     45  37  76 W8        29.96S
CLARION *      CLEAR     45  39  81 W7        29.96R
ESTHERVILLE    CLEAR     43  38  82 W9        29.95F
6HR MIN TEMP:  42; 6HR MAX TEMP:  47;

FORT DODGE *   CLEAR     46  36  66 CALM      29.98R
MASON CITY     CLEAR     43  37  79 W10       29.94R
6HR MIN TEMP:  43; 6HR MAX TEMP:  48;

FOREST CITY *    N/A     41  36  81 W6        29.93S
WEBSTER CITY * CLEAR     43  41  93 W8        29.95S
IOWA FALLS *     N/A     42  39  87 W5        29.96R
$$

IAZ007>011-017>019-026>030-037>042-050>054-066-271300-
   NORTHEAST IOWA

CITY           SKY/WX    TMP DP  RH WIND       PRES   REMARKS
CEDAR RAPIDS   CLEAR     46  42  86 W9        29.92S
6HR MIN TEMP:  44; 6HR MAX TEMP:  52;

CHARLES CITY * CLEAR     45  39  81 W7        29.91S
CLINTON *      CLEAR     45  42  89 W9        29.91S
DECORAH *      CLEAR     45  37  76 VRB5      29.85S
DUBUQUE        CLEAR     41  38  89 SW7       29.88S
6HR MIN TEMP:  41; 6HR MAX TEMP:  49;

MONTICELLO *   CLEAR     45  39  81 CALM      29.90R
OELWEIN *      CLEAR     43  39  87 W8        29.91R
WATERLOO       CLEAR     46  39  76 W8        29.91S
6HR MIN TEMP:  46; 6HR MAX TEMP:  52;

$$

IAZ064-065-067-068-078-271300-
   EAST CENTRAL IOWA

CITY           SKY/WX    TMP DP  RH WIND       PRES   REMARKS
DAVENPORT      CLEAR     47  42  83 W8        29.92S
6HR MIN TEMP:  47; 6HR MAX TEMP:  53;

IOWA CITY      CLEAR     47  42  83 W8        29.95S
6HR MIN TEMP:  46; 6HR MAX TEMP:  51;

MT. PLEASANT * CLEAR     49  48  97 W7        29.96S
MUSCATINE *    CLEAR     50  43  76 W3        29.94S
QUAD CITIES    CLEAR     48  42  80 W7        29.92S
6HR MIN TEMP:  47; 6HR MAX TEMP:  54;

$$

IAZ062-063-075>077-085>089-095>099-271300-
   SOUTHEAST IOWA

CITY           SKY/WX    TMP DP  RH WIND       PRES   REMARKS
BURLINGTON     CLEAR     50  45  83 W5        29.95F
6HR MIN TEMP:  50; 6HR MAX TEMP:  57;

FAIRFIELD *    CLEAR     46  43  87 W7        29.96S
FORT MADISON * CLEAR     50  45  81 W5        29.97S
KEOKUK *       CLEAR     48  45  87 SW6       29.96F
OSKALOOSA *      N/A     45  42  90 W7        29.97S
CENTERVILLE *    N/A     46  45  93 CALM      30.01S
OTTUMWA        CLEAR    N/A N/A N/A W8        29.97S
$$

ABBREVIATIONS USED IN REMARKS
   TC - TEMPERATURES IN CELSIUS
  WCI - WIND CHILL INDEX
   HX - HEAT INDEX
  VSB - VISIBILITY
$$




USA.gov is the U.S. government's official web portal to all federal, state and local government web resources and services.